Weather Service Report


832 
ASUS44 KJAN 100810
RWRMS 

MISSISSIPPI HOURLY WEATHER ROUNDUP
NATIONAL WEATHER SERVICE JACKSON MS
200 AM CST WED FEB 10 2016

NOTE: "FAIR: INDICATES FEW OR NO CLOUDS BELOW 12,000 FEET WITH NO
SIGNIFICANT WEATHER AND/OR OBSTRUCTIONS TO VISIBILITY.

MSZ001>002-007>008-010>013-018>021-025>028-034>036-100900-
NORTHWEST MISSISSIPPI
  
CITY           SKY/WX    TMP DP  RH WIND       PRES   REMARKS
CLEVELAND      FAIR      29  18  63 W5        30.24R WCI  24          
GREENWOOD      CLEAR     22  16  78 CALM      30.22S                  
GREENVILLE     CLEAR     28  18  66 CALM      30.23S                  
OLIVE BRANCH   CLEAR     27  14  59 NW14G20   30.19R WCI  15          
OXFORD         FAIR      27  10  50 NW6       30.20R WCI  20          
TUNICA         SUNNY     30  10  43 NW15G24   30.23R WCI  19          
$$

MSZ003>006-009-014>017-022>024-029>033-037>039-100900-
NORTHEAST MISSISSIPPI
  
CITY           SKY/WX    TMP DP  RH WIND       PRES   REMARKS
COLUMBUS AFB   PTCLDY    22  16  76 W2        30.18R                  
GOLDN TRIANGLE PTCLDY    27  12  54 W3        30.17S                  
STARKVILLE     FAIR      27  18  69 CALM      30.20R                  
TUPELO         CLEAR     23  14  68 NW5       30.17S WCI  17          
$$

MSZ040-058-100900-
CENTRAL MISSISSIPPI
  
CITY           SKY/WX    TMP DP  RH WIND       PRES   REMARKS
JACKSON INTL   CLEAR     27  19  72 SE3       30.23R                  
JACKSON HAWKNS CLEAR     30  18  60 CALM      30.24R                  
MERIDIAN KEY   CLEAR     28  18  66 CALM      30.22S                  
MERIDIAN NAS   CLEAR     26  15  63 CALM      30.21S                  
VICKSBURG      CLEAR     33  21  61 CALM      30.26S                  
$$

MSZ059>079-100900-
SOUTH MISSISSIPPI
  
CITY           SKY/WX    TMP DP  RH WIND       PRES   REMARKS
BROOKHAVEN     FAIR      32  23  69 CALM      30.25R                  
HATTIESBURG    CLEAR     31  22  69 NW3       30.24R                  
MCCOMB         CLEAR     36  21  54 NW7       30.23R WCI  30          
NATCHEZ        CLEAR     37  18  44 NW3       30.25R                  
PINE BELT      CLEAR     30  18  59 N3        30.23S                  
$$

MSZ080>082-100900-
COASTAL MISSISSIPPI
  
CITY           SKY/WX    TMP DP  RH WIND       PRES   REMARKS
BILOXI         PTCLDY    41  25  52 NW8       30.20R                  
PASCAGOULA     PTCLDY    39  23  52 NW6       30.21R WCI  35          
GULFPORT       CLEAR     37  24  59 NW3       30.21R                  
$$
  

Return to Home page


Western Regional Climate Center, wrcc@dri.edu